RH
13 14 18 20 20 19 18 18 19 19 19 18 17 16 16 16 15 14 13 12 11 9 6 5 4 4 4 18 21 5 6 6 6 7 10 12 20 27 22 23 22 21 22 24 23 22 23
18 15 15 19 20 20 18 17 17 17 16 16 16 14 13 12 11 10 9 7 6 5 5 6 8 9 10 20 14 9 9 9 9 8 7 8 23 21 10 26 25 24 27 24 21 18 16
12 16 13 20 16 18 17 17 16 14 13 13 12 12 11 10 8 7 6 5 5 6 6 10 20 23 25 24 19 15 11 14 15 16 16 15 12 11 22 24 25 27 22 18 14 14 20
12 13 15 18 18 16 15 14 13 12 11 10 10 9 8 7 7 6 6 6 6 6 10 12 16 22 24 21 22 20 23 25 21 23 24 25 25 22 23 25 23 21 18 16 13 16 18
14 14 14 16 17 16 14 13 13 11 10 8 8 7 6 6 7 8 7 7 8 14 20 25 24 24 28 18 19 22 23 25 28 27 27 27 26 30 29 27 24 20 18 16 17 18 21
14 15 14 14 17 14 14 14 12 11 9 8 7 7 7 8 10 9 10 13 23 25 27 29 28 25 28 26 23 22 23 23 26 26 30 35 35 32 29 25 24 29 28 26 26 26 27
14 15 16 15 16 14 14 14 12 11 10 8 8 8 7 8 9 11 17 27 30 32 30 30 31 31 28 22 20 20 17 11 19 34 33 33 34 26 28 34 34 32 30 28 28 27 29
15 17 16 15 15 15 14 13 12 11 11 11 11 10 10 9 11 13 20 26 33 38 35 33 33 30 26 15 15 25 11 15 26 26 33 30 26 32 34 32 30 29 26 23 23 24 27
16 18 18 18 17 16 15 14 13 12 14 14 15 18 19 20 26 24 28 29 31 33 32 30 27 17 14 11 11 14 9 23 26 19 18 22 23 29 31 24 24 23 24 24 27 28 24
20 20 21 20 20 17 15 15 13 13 17 19 18 18 24 43 35 32 37 36 31 26 23 28 24 20 16 13 34 17 17 20 40 35 30 23 28 30 31 28 29 30 24 34 30 25 21
22 21 25 25 22 18 15 15 14 17 23 28 26 42 45 37 41 40 32 25 17 8 35 26 25 16 14 24 31 27 20 40 38 33 29 33 40 32 28 29 37 28 31 29 28 26 23
56 26 27 30 26 21 16 15 14 20 24 30 41 44 46 46 36 29 18 8 7 16 26 25 15 22 28 28 28 35 29 18 16 30 32 29 28 39 36 32 34 42 32 20 18 16 16
91 34 30 30 30 22 17 18 21 27 49 52 68 62 54 43 28 21 8 7 18 26 22 23 25 18 28 27 27 37 28 26 22 19 17 19 19 42 23 29 25 27 17 16 12 10 10
98 84 55 41 37 27 19 27 49 60 77 78 64 59 57 48 28 12 7 6 32 25 25 20 10 13 22 19 21 23 27 20 26 18 15 16 18 39 38 25 20 18 16 22 23 19 17
99 98 89 46 36 26 26 52 60 78 86 90 83 67 61 41 18 8 7 32 26 26 24 22 11 20 22 22 19 19 26 24 22 9 21 18 14 26 19 21 23 13 15 19 24 18 20
99 98 64 42 36 30 42 48 94 55 60 90 83 74 65 31 10 8 6 36 36 8 7 7 20 16 18 20 16 16 20 19 22 5 4 26 22 18 18 22 22 24 21 20 19 29 28
99 100 90 41 39 35 38 72 91 91 83 94 78 68 52 15 8 6 16 40 14 6 7 9 26 24 20 22 18 19 22 14 6 30 6 30 30 24 28 23 19 17 17 19 19 19 24
100 100 100 100 66 43 54 65 96 98 96 94 80 17 20 7 6 19 38 32 10 7 8 8 10 26 26 25 25 23 26 40 6 6 36 42 29 31 27 23 21 26 38 41 37 33 31
72 56 99 100 99 99 96 78 91 98 98 49 6 17 8 6 24 25 15 10 8 8 10 10 10 8 8 33 27 29 42 5 6 8 46 45 30 26 13 25 32 37 29 28 31 33 32
13 16 89 93 89 57 24 11 12 25 11 6 10 10 7 7 13 35 18 8 8 7 8 7 6 5 6 25 12 40 44 10 6 10 9 10 47 44 34 32 35 33 32 32 34 36 34
8 6 7 12 26 7 6 7 7 6 6 5 5 18 8 9 8 11 26 25 10 7 7 6 6 7 22 41 40 45 47 59 27 12 13 52 56 46 41 39 39 38 36 34 34 34 35
7 7 7 7 7 9 7 7 6 5 5 5 5 7 7 9 12 10 10 11 18 17 7 10 21 29 21 40 41 37 51 53 50 61 66 66 64 63 56 39 34 35 36 36 37 35 32
8 7 7 7 7 7 7 6 6 5 5 6 6 7 9 9 10 20 28 22 27 11 9 9 19 37 14 49 16 8 9 14 19 29 65 69 68 62 48 46 51 50 44 36 35 36 37
8 8 8 7 7 7 6 6 6 5 6 6 7 8 8 10 11 24 14 12 14 9 12 9 9 10 20 8 8 9 12 16 19 19 25 50 68 62 67 61 66 40 37 41 39 36 36
9 9 8 8 7 7 6 7 6 6 6 7 8 9 10 11 13 12 12 12 11 10 10 9 8 6 5 10 13 29 58 52 44 24 28 32 68 70 76 66 61 54 37 45 48 49 46
11 10 10 9 8 7 7 7 7 7 7 8 9 11 11 12 14 13 13 13 12 10 9 7 6 5 10 15 27 32 69 59 43 48 57 64 80 74 77 86 76 47 54 60 57 56 51
13 11 10 9 8 8 7 7 8 8 8 9 10 11 12 13 15 16 17 14 16 22 53 11 6 10 14 61 94 97 84 57 50 50 46 61 68 73 82 95 77 62 62 75 92 70 84
22 15 12 10 9 8 8 8 9 10 10 10 11 11 13 14 14 15 14 13 10 9 43 17 13 17 21 69 95 91 88 76 68 58 57 59 59 66 65 79 74 74 65 79 95 93 99
28 22 17 13 11 9 9 9 10 10 11 12 13 14 15 16 14 13 11 10 9 8 27 18 39 26 34 72 80 98 100 91 88 78 68 70 68 68 73 69 69 81 94 96 98 80 92
Wind_Speed
40 37 37 35 33 31 28 26 24 22 20 19 17 16 15 14 13 12 12 11 10 9 7 6 5 6 6 4 12 11 13 13 13 12 12 12 9 10 9 11 14 16 14 13 15 18 19
41 39 37 36 33 32 30 28 26 23 22 20 18 17 16 15 14 13 13 11 9 8 5 5 5 7 8 7 14 14 15 15 15 14 14 14 11 14 17 13 14 16 18 21 20 20 21
41 40 38 37 35 32 31 29 27 25 23 21 19 17 16 15 14 14 12 11 9 8 7 7 8 11 13 16 18 20 20 19 20 20 20 19 20 18 14 17 15 16 21 23 22 16 13
43 41 39 38 36 34 32 30 28 26 23 21 19 16 16 15 14 13 12 11 11 9 9 10 13 15 19 20 21 24 24 23 26 25 25 24 23 23 19 18 20 22 22 25 10 10 18
44 42 41 39 36 34 33 31 29 27 24 21 19 17 16 15 15 14 13 12 11 11 9 12 16 19 13 22 19 18 18 20 19 21 21 21 20 15 14 20 23 21 28 22 20 20 22
45 45 43 41 38 36 33 31 30 27 24 22 20 18 17 16 16 15 14 12 11 12 13 15 18 15 12 14 21 17 16 16 16 17 15 13 11 15 17 18 19 19 21 24 28 27 27
47 46 44 42 39 37 34 31 30 28 25 22 20 18 17 16 15 14 13 12 13 15 15 15 21 20 24 21 18 19 16 17 14 10 10 11 11 14 15 12 15 19 22 25 24 24 25
48 47 45 43 41 39 36 34 32 30 26 23 21 18 17 16 16 16 16 16 18 18 24 28 28 25 22 19 17 16 15 10 8 8 8 11 13 9 10 13 16 18 23 26 25 23 24
49 47 46 44 42 40 37 35 33 31 26 23 21 19 18 16 14 14 16 18 20 18 22 25 24 20 18 15 14 15 12 7 6 8 11 14 14 14 14 15 16 17 20 24 25 27 27
49 47 45 42 40 40 37 36 35 33 27 24 22 20 17 15 15 16 16 17 14 13 10 11 8 13 12 9 7 9 7 1 4 2 5 6 8 8 9 12 13 17 17 21 25 27 29
45 45 43 41 40 40 38 35 35 34 28 25 22 21 19 17 15 13 13 11 8 5 6 5 7 11 6 5 6 7 5 2 3 5 4 3 8 9 11 11 13 19 18 22 24 27 31
44 43 43 42 41 40 37 35 36 35 29 26 24 22 20 18 13 12 11 7 6 5 7 3 4 3 2 2 6 5 6 5 8 5 6 9 8 8 8 14 13 15 19 25 26 24 21
45 40 40 41 39 39 38 37 37 34 30 26 24 21 15 14 13 11 8 8 6 8 6 3 4 5 5 2 3 1 3 5 1 6 6 11 9 8 8 12 9 13 20 20 14 11 14
41 44 40 40 39 39 39 37 37 35 29 28 28 25 20 17 14 11 9 13 9 6 8 10 1 5 4 3 4 2 2 3 8 4 10 7 5 3 7 7 12 18 13 11 10 12 19
39 38 36 39 41 40 40 37 40 36 31 28 27 26 23 19 15 12 13 12 8 8 7 4 5 4 5 4 5 0 1 2 4 3 3 8 6 7 9 12 10 5 14 14 17 26 25
35 40 39 39 41 40 41 40 36 41 39 31 26 26 25 21 16 14 17 12 12 16 10 8 6 6 4 3 3 1 2 4 3 3 5 5 12 10 8 15 13 15 13 15 14 14 17
36 36 40 38 39 39 41 41 39 44 38 32 30 29 28 23 17 18 18 12 22 19 14 11 7 4 5 4 4 4 4 7 8 5 7 8 8 9 16 15 16 14 20 20 23 23 14
33 31 32 35 52 45 40 40 41 39 36 32 33 25 27 21 19 15 15 19 20 16 17 15 12 8 6 6 4 4 6 6 7 9 5 7 9 18 24 19 16 11 11 12 17 23 30
26 24 26 32 35 39 37 32 33 39 41 31 28 27 22 23 15 15 24 23 20 16 15 14 13 12 11 6 3 5 6 8 9 7 5 8 5 18 5 3 3 6 8 17 23 28 37
23 25 28 24 29 29 27 26 27 27 29 30 28 21 19 25 26 17 20 20 20 19 17 16 14 12 9 8 9 5 6 9 10 11 12 14 9 14 19 22 25 32 29 29 28 31 35
23 25 25 25 23 23 25 27 28 28 28 28 27 20 24 23 27 22 16 14 18 17 17 15 15 13 9 6 8 7 8 10 13 12 11 8 14 16 22 25 26 30 30 30 30 31 34
21 21 22 25 25 24 22 22 23 24 25 27 29 19 23 23 20 24 22 19 16 15 16 15 12 11 11 8 8 5 9 9 7 9 6 9 14 18 25 22 20 27 27 28 27 25 28
18 17 16 17 20 22 22 22 24 24 26 28 25 25 15 21 18 19 19 19 16 19 15 17 11 12 11 11 16 16 16 15 14 14 11 13 10 14 11 13 26 23 10 13 19 23 28
15 15 16 17 17 17 18 20 21 22 24 23 23 23 21 18 19 17 20 19 17 16 18 17 16 14 21 13 14 15 15 16 14 13 14 12 9 10 20 19 5 6 19 27 29 28 29
12 12 13 13 14 17 18 18 19 20 20 22 23 24 23 22 20 21 19 19 20 18 18 18 19 20 13 14 12 8 6 7 8 11 12 12 11 10 7 15 29 24 5 21 29 40 29
12 13 13 13 13 14 15 17 19 19 20 21 21 22 22 21 20 20 20 18 17 17 17 20 17 15 13 10 8 5 4 4 4 5 8 10 12 15 14 15 8 13 27 28 26 40 28
11 12 13 13 14 14 14 15 16 19 19 20 21 21 22 22 20 19 20 19 18 15 8 18 15 14 12 8 6 6 5 5 5 6 7 11 13 20 20 20 20 27 20 28 21 41 47
10 11 12 13 14 14 14 15 17 16 18 19 19 21 21 23 20 21 18 18 17 16 11 17 11 13 12 9 5 5 5 6 8 11 10 9 10 14 16 17 17 10 41 37 47 58 60
9 8 10 11 13 13 13 14 14 15 16 17 18 19 20 20 15 19 18 18 20 22 21 15 15 7 10 7 7 6 8 9 8 6 6 6 10 16 16 27 35 37 41 48 49 56 60
Wind_Direction
200 205 204 202 203 204 205 207 205 205 207 211 215 222 230 237 244 251 257 263 271 280 290 300 311 314 314 346 256 287 291 296 299 301 297 294 311 297 291 281 289 293 281 279 290 292 294
202 201 209 204 207 205 205 207 208 208 210 214 219 222 229 238 244 251 256 262 271 278 287 299 311 312 309 308 280 291 292 295 296 297 297 299 288 288 297 286 283 279 285 289 292 289 287
204 205 206 208 206 209 209 209 210 209 211 215 220 226 232 238 245 253 263 272 277 281 286 292 301 307 304 280 288 287 287 287 284 286 284 280 283 288 283 295 279 286 292 296 292 279 279
203 205 205 207 209 207 211 213 212 212 212 215 220 225 234 240 249 256 264 270 274 276 283 290 296 303 309 295 293 286 284 282 280 279 279 277 279 282 281 282 284 290 287 291 287 275 298
204 204 206 208 210 210 210 212 214 213 211 213 219 224 232 242 253 261 269 275 280 283 285 312 312 308 302 301 295 298 292 284 287 287 286 287 284 278 276 290 291 284 276 279 283 289 298
204 205 205 209 210 211 213 212 214 214 212 212 216 223 232 242 250 258 269 278 284 289 301 312 309 314 293 285 299 296 292 295 294 298 304 312 289 283 284 279 293 319 306 295 293 295 293
205 206 206 208 209 211 211 214 215 215 211 212 218 225 234 241 249 258 267 278 288 301 289 290 297 297 290 293 293 288 292 296 295 292 285 275 287 278 298 300 302 299 295 292 295 298 296
205 207 207 208 210 210 209 212 214 214 211 212 220 227 236 245 254 259 266 269 273 275 290 293 289 287 290 285 280 283 292 292 277 278 268 283 277 291 301 302 296 295 295 294 296 299 297
205 207 208 207 209 211 209 212 212 213 212 215 220 227 236 249 259 268 278 281 281 287 282 281 278 268 275 272 266 273 287 302 285 284 269 266 264 302 299 295 294 292 296 300 300 302 299
204 207 209 210 211 212 211 212 213 212 210 217 222 232 242 245 257 271 282 282 279 271 267 252 271 262 264 263 265 277 289 281 331 287 315 268 272 306 305 301 296 297 302 299 300 304 300
204 207 209 210 213 214 214 213 215 214 210 219 225 232 239 250 262 260 277 287 268 220 265 229 249 252 257 214 240 293 293 6 256 290 306 308 287 296 305 298 298 295 296 301 296 292 295
203 209 212 212 212 215 213 212 217 217 212 218 227 236 247 248 250 258 271 256 204 189 246 263 241 227 178 230 250 288 305 300 302 293 276 266 300 296 289 301 294 301 312 302 290 279 270
209 205 210 215 215 215 213 212 215 216 215 217 223 229 235 247 251 256 251 201 182 227 251 242 226 197 176 252 296 15 19 12 35 326 275 289 289 266 307 319 294 303 320 310 300 289 282
209 205 211 213 214 213 211 210 214 216 215 221 228 240 245 252 250 238 211 193 218 231 223 235 236 225 205 230 305 334 300 297 356 331 299 303 270 272 302 316 303 300 291 298 305 306 309
214 213 209 213 211 209 210 211 214 220 220 227 235 241 251 250 242 224 205 199 215 223 218 216 240 209 249 248 206 280 17 256 316 35 5 318 265 302 307 293 293 290 282 294 291 286 278
230 215 208 214 214 213 215 221 226 220 224 226 237 244 252 242 227 214 204 218 228 230 246 235 218 219 212 224 175 141 232 267 290 271 299 297 299 293 261 303 296 257 284 303 283 280 289
217 216 211 213 215 217 219 223 241 223 229 231 236 243 239 225 208 209 214 229 233 237 241 220 227 233 206 230 188 225 234 275 272 295 309 301 267 264 297 290 296 283 285 279 279 268 282
206 207 214 220 218 218 223 240 222 221 224 223 233 219 220 207 199 200 223 222 236 242 241 237 230 208 198 216 213 223 237 227 269 296 310 277 285 284 286 286 272 268 284 282 277 286 283
185 188 206 216 215 219 219 217 214 214 218 208 200 212 207 201 194 205 226 231 231 240 234 231 226 223 226 216 227 213 226 267 268 280 257 290 272 308 298 216 269 307 288 295 290 284 278
181 180 178 170 174 176 188 191 185 187 194 195 195 203 201 203 202 196 223 230 234 238 237 229 236 237 236 233 236 240 225 272 277 282 292 294 270 263 277 291 291 292 293 289 284 280 286
189 183 180 181 183 188 187 194 188 187 191 194 196 200 200 208 211 213 213 221 228 235 235 232 240 235 221 231 231 242 237 255 296 293 294 282 275 279 282 286 289 289 291 288 282 280 277
189 191 183 177 184 191 189 197 197 191 195 200 197 199 204 215 212 215 221 224 222 224 233 236 226 231 224 219 231 251 244 264 263 268 266 266 282 299 297 300 298 295 288 284 284 285 281
179 182 186 190 188 187 194 196 201 199 200 202 203 209 209 214 219 205 226 223 214 235 238 241 225 232 232 224 247 256 264 253 260 269 263 266 281 308 293 311 311 300 301 300 290 289 288
186 183 187 186 190 199 196 203 206 206 207 210 207 209 217 216 216 212 223 227 219 233 234 239 239 232 245 262 268 270 275 278 273 267 258 260 274 282 289 315 266 284 298 299 294 296 295
194 193 195 200 200 196 200 205 206 209 211 215 211 211 214 220 225 226 226 226 232 239 238 242 242 245 258 267 275 286 283 290 267 260 252 250 245 267 265 290 288 303 4 324 311 303 303
201 198 198 202 207 214 209 204 206 213 212 215 218 217 218 219 224 226 228 232 236 234 241 244 250 249 257 258 269 247 235 259 259 278 246 234 242 245 268 286 278 289 314 316 305 292 312
205 206 205 202 202 207 210 213 214 212 214 216 218 222 224 224 228 226 226 227 226 228 218 244 244 247 246 237 227 253 267 241 256 253 240 254 257 257 268 264 274 301 311 320 302 302 294
192 202 209 211 210 206 208 209 214 215 218 218 221 225 227 231 230 232 237 229 228 221 233 245 239 240 239 223 227 252 240 257 262 263 267 263 267 276 282 282 283 294 304 310 300 301 300
155 183 200 205 209 214 217 213 213 214 217 220 223 226 227 227 233 233 232 233 236 233 213 226 218 222 213 181 207 205 248 260 272 278 285 260 254 281 281 273 283 304 303 304 305 302 306